Regional Weather Roundup
Issued by NWS

Home | Current Version | Previous Version | Graphics & Text | Print | Product List | Glossary On
Versions: 1 2 3 4 5 6 7 8 9 10 11 12 13 14 15 16 17 18 19 20 21 22 23 24 25 26 27 28 29 30 31 32 33 34 35 36 37 38 39 40 41 42 43 44 45 46 47 48 49 50
000
ASUS45 KPSR 031910
RWRAZ

ARIZONA REGIONAL HOURLY WEATHER ROUNDUP
NATIONAL WEATHER SERVICE PHOENIX AZ
1200 PM MST TUE MAR 03 2015

NOTE: FAIR INDICATES FEW OR NO CLOUDS BELOW 12,000 FEET WITH NO
SIGNIFICANT WEATHER AND/OR OBSTRUCTIONS TO VISIBILITY.

AZZ001>003-036-032000-
NORTHWEST ARIZONA

CITY           SKY/WX    TMP DP  RH WIND       PRES   REMARKS
BULLHEAD CITY  SUNNY     59  43  55 SW7       29.97F
KINGMAN        PTSUNNY   50  34  54 W6        29.94F
$$

AZZ004>008-015-016-018-032000-
NORTH CENTRAL ARIZONA

CITY           SKY/WX    TMP DP  RH WIND       PRES   REMARKS
GRAND CANYON   CLOUDY    30  26  85 SW8       29.91S WCI  22
PRESCOTT       PTSUNNY   43  24  47 W9        29.93R
FLAGSTAFF      NOT AVBL
PAYSON         CLOUDY    43  34  70 S6        29.95F
PAGE           PTSUNNY   45  30  55 CALM      29.87S
$$

AZZ009>014-017-032000-
NORTHEAST ARIZONA

CITY           SKY/WX    TMP DP  RH WIND       PRES   REMARKS
WINSLOW        MOSUNNY   46  29  51 SW5       29.89F
SAINT JOHNS    SUNNY     45  22  40 W17       29.89F
WINDOW ROCK    CLOUDY    39  26  59 W10G18    29.88F WCI  32
SHOW LOW       PTSUNNY   37  27  65 SW13      29.93F WCI  29
$$

AZZ023-032000-
GREATER PHOENIX AREA

CITY           SKY/WX    TMP DP  RH WIND       PRES   REMARKS
PHOENIX        PTSUNNY   63  44  50 S7        29.92F
BUCKEYE        MOSUNNY   57  50  77 S6        29.94F
LUKE AFB       MOSUNNY   60  47  62 VRB1      29.92F
DEER VALLEY    MOSUNNY   58  41  53 CALM      29.91F
SCOTTSDALE     PTSUNNY   60  42  51 VRB6      29.93F
MESA-FALCON    PTSUNNY   59  43  55 S8        29.92F
MESA-GATEWAY   MOSUNNY   57  46  67 CALM      29.95F
$$

AZZ027-028-032000-
SOUTHWEST MARICOPA COUNTY AND PINAL COUNTY

CITY           SKY/WX    TMP DP  RH WIND       PRES   REMARKS
CASA GRANDE    MOSUNNY   52  48  87 CALM      29.95S
GILA BEND      PTSUNNY   59  50  72 W3        29.94S
$$

AZZ503-504-507>509-032000-
SOUTHEAST ARIZONA

CITY           SKY/WX    TMP DP  RH WIND       PRES   REMARKS
TUCSON         MOSUNNY   58  37  45 CALM      29.94F
DAVIS-MONTHAN  MOSUNNY   55  36  49 S3        29.92F
NOGALES        SUNNY     60  27  28 SW8G20    29.92F
SIERRA VISTA   MOSUNNY   57  34  41 CALM      29.92F
DOUGLAS        SUNNY     59  36  42 SW13      29.92S
SAFFORD        MOSUNNY   58  38  47 N7        29.90F
$$

AZZ020-021-025-026-031-032000-
SOUTHWEST ARIZONA

CITY           SKY/WX    TMP DP  RH WIND       PRES   REMARKS
YUMA           MOSUNNY   65  40  39 CALM      29.93F
$$

CAZ031-033-041-043-047-048-061-032000-
SOUTHERN CALIFORNIA

CITY           SKY/WX    TMP DP  RH WIND       PRES   REMARKS
DOWNTOWN L.A.  NOT AVBL
L.A. AIRPORT   MOSUNNY   60  40  47 VRB3      29.96F
SAN DIEGO      MOSUNNY   62  39  42 VRB3      29.96F
BURBANK        SUNNY     58  38  47 CALM      29.95F
ONTARIO        MOSUNNY   56  37  49 S3        29.96S
RIVERSIDE      MOSUNNY   58  39  49 SE3       29.96S
PALM SPRINGS   SUNNY     62  37  39 CALM      29.96F
EL CENTRO NAS  MOSUNNY   61  40  45 NW5       29.95F
IMPERIAL       SUNNY     61  42  49 NW6       29.95F
BLYTHE         SUNNY     59  43  55 VRB3      29.96F
$$

NVZ020-UTZ003-032000-
SOUTHERN NEVADA-UTAH

CITY           SKY/WX    TMP DP  RH WIND       PRES   REMARKS
LAS VEGAS      MOSUNNY   55  35  47 E3        29.90S
SALT LAKE CITY FLURRIES  33  30  88 W5        29.88S WCI  29
$$

NMZ009-TXZ055-032000-
NEW MEXICO-WEST TEXAS

CITY           SKY/WX    TMP DP  RH WIND       PRES   REMARKS
ALBUQUERQUE    PTSUNNY   47  28  47 S7        29.87F
EL PASO        LGT RAIN  54  49  83 SE3       29.92F
$$


........................KEY........................
SKY/WX - SKY CONDITION/WEATHER
TMP    - TEMPERATURE IN FAHRENHEIT
DP     - DEW POINT IN FAHRENHEIT
RH     - RELATIVE HUMIDITY IN PERCENT
WIND   - DIRECTION AND SPEED IN MILES PER HOUR (MPH)
VRB    - VARIABLE WIND DIRECTION
PRES   - MEAN SEA LEVEL PRESSURE IN INCHES OF MERCURY
         F - FALLING PRESSURE   R - RISING PRESSURE
         S - STEADY PRESSURE
VSB    - VISIBILITY IN MILES
HX     - HEAT INDEX IN FAHRENHEIT
WCI    - WIND CHILL INDEX IN FAHRENHEIT
TC     - TEMPERATURE IN CELSIUS WHICH IS ALSO KNOWN AS
         TEMPERATURE IN CENTIGRADE
AFB    - AIR FORCE BASE
         LUKE AFB IS LUKE AIR FORCE BASE
         DAVIS-MONTHAN IS DAVIS-MONTHAN AIR FORCE BASE
NAS    - NAVAL AIR STATION
         EL CENTRO NAS IS EL CENTRO NAVAL AIR STATION
N/A    - NOT AVAILABLE


USA.gov is the U.S. government's official web portal to all federal, state and local government web resources and services.